timestamp,wind_dir_avg,wind_spd_max_dir,wind_spd_avg,wind_spd_gust,battery_voltage,lat,long
2017-10-13 00:00:00+00:00,4.0,9.0,7.61,8.18,12.7,47.59359,-54.27349
2017-10-13 00:10:00+00:00,11.0,5.0,6.57,7.51,12.6,47.59359,-54.27349
2017-10-13 00:20:00+00:00,10.0,7.0,6.16,6.96,12.7,47.59359,-54.27349
2017-10-13 00:30:00+00:00,4.0,354.0,6.13,6.85,12.7,47.59359,-54.27349
2017-10-13 00:40:00+00:00,13.0,12.0,7.1,8.26,12.7,47.59359,-54.27349
2017-10-13 00:50:00+00:00,11.0,5.0,7.54,8.86,12.7,47.59359,-54.27349
2017-10-13 01:00:00+00:00,5.0,3.0,7.21,8.3,12.6,47.59359,-54.27349
2017-10-13 01:10:00+00:00,4.0,5.0,7.8,9.02,12.6,47.59359,-54.27349
2017-10-13 01:20:00+00:00,14.0,14.0,7.26,8.54,12.7,47.59359,-54.27349
2017-10-13 01:30:00+00:00,12.0,6.0,7.33,8.7,12.7,47.59359,-54.27349
2017-10-13 01:40:00+00:00,12.0,5.0,7.12,7.75,12.7,47.59359,-54.27349
2017-10-13 01:50:00+00:00,18.0,19.0,7.66,8.95,12.7,47.59359,-54.27349
2017-10-13 02:00:00+00:00,9.0,13.0,8.73,10.58,12.6,47.59359,-54.27349
2017-10-13 02:10:00+00:00,10.0,5.0,8.72,10.0,12.6,47.59359,-54.27349
2017-10-13 02:20:00+00:00,16.0,17.0,8.11,9.19,12.6,47.59359,-54.27349
2017-10-13 02:30:00+00:00,5.0,5.0,8.09,8.79,12.6,47.59359,-54.27349
2017-10-13 02:40:00+00:00,12.0,14.0,6.99,8.28,12.7,47.59359,-54.27349
2017-10-13 02:50:00+00:00,16.0,16.0,6.23,7.19,12.7,47.59359,-54.27349
2017-10-13 03:00:00+00:00,24.0,23.0,5.7,6.71,12.6,47.59359,-54.27349
2017-10-13 03:10:00+00:00,27.0,35.0,5.48,6.51,12.6,47.59359,-54.27349
2017-10-13 03:20:00+00:00,22.0,33.0,5.68,6.77,12.6,47.59359,-54.27349
2017-10-13 03:30:00+00:00,18.0,16.0,5.67,6.3,12.6,47.59359,-54.27349
2017-10-13 03:40:00+00:00,3.0,2.0,5.67,6.78,12.6,47.59359,-54.27349
2017-10-13 03:50:00+00:00,6.0,4.0,5.94,6.58,12.7,47.59359,-54.27349
2017-10-13 04:00:00+00:00,1.0,5.0,4.98,5.8,12.6,47.59359,-54.27349
2017-10-13 04:10:00+00:00,355.0,16.0,4.69,6.19,12.6,47.59359,-54.27349
2017-10-13 04:20:00+00:00,343.0,338.0,4.7,5.5,12.6,47.59359,-54.27349
2017-10-13 04:30:00+00:00,9.0,10.0,7.06,7.7,12.6,47.59359,-54.27349
2017-10-13 04:40:00+00:00,0.0,0.0,6.43,7.05,12.6,47.59359,-54.27349
2017-10-13 04:50:00+00:00,13.0,18.0,6.39,7.0,12.6,47.59359,-54.27349
2017-10-13 05:00:00+00:00,6.0,3.0,6.5,7.09,12.6,47.59359,-54.27349
2017-10-13 05:10:00+00:00,4.0,7.0,6.91,8.09,12.6,47.59359,-54.27349
2017-10-13 05:20:00+00:00,8.0,6.0,7.14,7.7,12.6,47.59359,-54.27349
2017-10-13 05:30:00+00:00,337.0,344.0,5.12,5.91,12.6,47.59359,-54.27349
2017-10-13 05:40:00+00:00,332.0,338.0,4.87,6.06,12.6,47.59359,-54.27349
2017-10-13 05:50:00+00:00,330.0,335.0,4.93,5.8,12.6,47.59359,-54.27349
2017-10-13 06:00:00+00:00,337.0,329.0,4.56,5.25,12.6,47.59359,-54.27349
2017-10-13 06:10:00+00:00,340.0,336.0,4.58,5.26,12.6,47.59359,-54.27349
2017-10-13 06:20:00+00:00,333.0,335.0,5.44,6.05,12.6,47.59359,-54.27349
2017-10-13 06:30:00+00:00,339.0,338.0,5.95,6.91,12.6,47.59359,-54.27349
2017-10-13 06:40:00+00:00,340.0,339.0,5.46,6.33,12.6,47.59359,-54.27349
2017-10-13 06:50:00+00:00,344.0,348.0,5.62,6.3,12.6,47.59359,-54.27349
2017-10-13 07:00:00+00:00,350.0,350.0,5.04,5.71,12.6,47.59359,-54.27349
2017-10-13 07:10:00+00:00,349.0,348.0,3.61,4.33,12.5,47.59359,-54.27349
2017-10-13 07:20:00+00:00,354.0,353.0,5.1,5.92,12.6,47.59359,-54.27349
2017-10-13 07:30:00+00:00,347.0,351.0,5.34,5.97,12.6,47.59359,-54.27349
2017-10-13 07:40:00+00:00,342.0,341.0,5.41,6.08,12.6,47.59359,-54.27349
2017-10-13 07:50:00+00:00,348.0,345.0,6.18,6.87,12.6,47.59359,-54.27349
2017-10-13 08:00:00+00:00,342.0,340.0,6.95,7.8,12.6,47.59359,-54.27349
2017-10-13 08:10:00+00:00,342.0,340.0,6.85,8.0,12.5,47.59359,-54.27349
2017-10-13 08:20:00+00:00,343.0,343.0,6.81,7.96,12.6,47.59359,-54.27349
2017-10-13 08:30:00+00:00,346.0,346.0,6.78,7.46,12.6,47.59359,-54.27349
2017-10-13 08:40:00+00:00,338.0,336.0,6.63,7.65,12.6,47.59359,-54.27349
2017-10-13 08:50:00+00:00,343.0,342.0,6.37,7.12,12.6,47.59359,-54.27349
2017-10-13 09:00:00+00:00,341.0,349.0,6.61,7.3,12.5,47.59359,-54.27349
2017-10-13 09:10:00+00:00,0.0,357.0,5.62,6.01,12.4,47.59359,-54.27349
2017-10-13 09:20:00+00:00,351.0,355.0,6.43,7.99,12.6,47.59359,-54.27349
2017-10-13 09:30:00+00:00,357.0,355.0,5.73,6.35,12.6,47.59359,-54.27349
2017-10-13 09:40:00+00:00,1.0,358.0,6.22,7.44,12.6,47.59359,-54.27349
2017-10-13 09:50:00+00:00,13.0,12.0,5.52,6.81,12.6,47.59359,-54.27349
2017-10-13 10:00:00+00:00,6.0,5.0,5.66,6.74,12.5,47.59359,-54.27349
2017-10-13 10:10:00+00:00,3.0,4.0,5.89,6.59,12.6,47.59359,-54.27349
2017-10-13 10:20:00+00:00,345.0,348.0,5.06,5.78,13.2,47.59359,-54.27349
2017-10-13 10:30:00+00:00,351.0,350.0,4.94,6.18,13.8,47.59359,-54.27349
2017-10-13 10:40:00+00:00,2.0,9.0,6.35,7.21,13.8,47.59359,-54.27349
2017-10-13 10:50:00+00:00,359.0,4.0,7.15,8.33,14.0,47.59359,-54.27349
2017-10-13 11:00:00+00:00,2.0,3.0,6.55,7.43,13.8,47.59359,-54.27349
2017-10-13 11:10:00+00:00,8.0,4.0,5.89,6.79,13.9,47.59359,-54.27349
2017-10-13 11:20:00+00:00,0.0,7.0,5.27,5.87,13.7,47.59359,-54.27349
2017-10-13 11:30:00+00:00,24.0,24.0,5.51,6.36,13.8,47.59359,-54.27349
2017-10-13 11:40:00+00:00,9.0,358.0,5.73,6.98,13.9,47.59359,-54.27349
2017-10-13 11:50:00+00:00,6.0,5.0,6.14,7.5,14.0,47.59359,-54.27349
2017-10-13 12:00:00+00:00,4.0,2.0,6.41,7.14,13.9,47.59359,-54.27349
2017-10-13 12:10:00+00:00,15.0,13.0,6.3,7.48,13.9,47.59359,-54.27349
2017-10-13 12:20:00+00:00,14.0,17.0,5.08,6.08,14.1,47.59359,-54.27349
2017-10-13 12:30:00+00:00,15.0,12.0,3.48,4.42,14.0,47.59359,-54.27349
2017-10-13 12:40:00+00:00,36.0,38.0,4.43,5.63,14.1,47.59359,-54.27349
2017-10-13 12:50:00+00:00,31.0,38.0,3.81,4.54,14.0,47.59359,-54.27349
2017-10-13 13:00:00+00:00,16.0,16.0,3.46,4.43,14.0,47.59359,-54.27349
2017-10-13 13:10:00+00:00,356.0,5.0,2.04,2.6,14.0,47.59359,-54.27349
2017-10-13 13:20:00+00:00,8.0,12.0,2.8,3.6,14.0,47.59359,-54.27349
2017-10-13 13:30:00+00:00,352.0,340.0,2.1,2.51,14.0,47.59359,-54.27349
2017-10-13 13:40:00+00:00,20.0,33.0,1.65,2.21,14.0,47.59359,-54.27349
2017-10-13 13:50:00+00:00,345.0,354.0,2.06,2.44,14.0,47.59359,-54.27349
2017-10-13 14:00:00+00:00,4.0,11.0,1.38,2.1,14.0,47.59359,-54.27349
2017-10-13 14:10:00+00:00,336.0,342.0,1.17,1.51,14.1,47.59359,-54.27349
2017-10-13 14:20:00+00:00,53.0,50.0,1.47,1.91,13.8,47.59359,-54.27349
2017-10-13 14:30:00+00:00,18.0,20.0,0.48,0.88,14.2,47.59359,-54.27349
2017-10-13 14:40:00+00:00,327.0,288.0,0.37,0.83,13.9,47.59359,-54.27349
2017-10-13 14:50:00+00:00,241.0,246.0,1.32,1.69,13.8,47.59359,-54.27349
2017-10-13 15:00:00+00:00,215.0,201.0,0.84,1.26,13.9,47.59359,-54.27349
2017-10-13 15:10:00+00:00,43.0,41.0,0.21,0.74,14.1,47.59359,-54.27349
2017-10-13 15:20:00+00:00,190.0,216.0,1.5,2.45,14.1,47.59359,-54.27349
2017-10-13 15:30:00+00:00,170.0,166.0,1.84,2.27,14.1,47.59359,-54.27349
2017-10-13 15:40:00+00:00,150.0,149.0,1.51,2.24,13.6,47.59359,-54.27349
2017-10-13 15:50:00+00:00,187.0,193.0,2.12,2.61,13.7,47.59359,-54.27349
2017-10-13 16:00:00+00:00,215.0,213.0,1.5,1.86,13.6,47.59359,-54.27349
2017-10-13 16:10:00+00:00,207.0,205.0,1.37,1.75,13.8,47.59359,-54.27349
2017-10-13 16:20:00+00:00,211.0,202.0,0.99,1.32,13.7,47.59359,-54.27349
2017-10-13 16:30:00+00:00,227.0,232.0,2.2,2.8,13.7,47.59359,-54.27349
2017-10-13 16:40:00+00:00,220.0,223.0,0.99,1.4,13.7,47.59359,-54.27349
2017-10-13 16:50:00+00:00,23.0,320.0,0.15,0.67,13.7,47.59359,-54.27349
2017-10-13 17:00:00+00:00,317.0,317.0,3.73,4.49,14.0,47.59359,-54.27349
2017-10-13 17:10:00+00:00,315.0,313.0,4.0,4.77,13.8,47.59359,-54.27349
2017-10-13 17:20:00+00:00,314.0,326.0,5.28,6.01,14.0,47.59359,-54.27349
2017-10-13 17:30:00+00:00,313.0,308.0,5.77,6.57,13.7,47.59359,-54.27349
2017-10-13 17:40:00+00:00,309.0,313.0,4.61,5.26,13.8,47.59359,-54.27349
2017-10-13 17:50:00+00:00,297.0,292.0,5.82,6.63,14.2,47.59359,-54.27349
2017-10-13 18:00:00+00:00,302.0,308.0,4.47,5.35,13.7,47.59359,-54.27349
2017-10-13 18:10:00+00:00,313.0,312.0,5.0,5.73,14.0,47.59359,-54.27349
2017-10-13 18:20:00+00:00,311.0,318.0,4.93,6.07,14.2,47.59359,-54.27349
2017-10-13 18:30:00+00:00,318.0,323.0,4.38,5.1,14.2,47.59359,-54.27349
2017-10-13 18:40:00+00:00,323.0,326.0,4.17,4.91,14.2,47.59359,-54.27349
2017-10-13 18:50:00+00:00,312.0,319.0,4.21,5.7,14.2,47.59359,-54.27349
2017-10-13 19:00:00+00:00,335.0,330.0,4.96,5.5,13.8,47.59359,-54.27349
2017-10-13 19:10:00+00:00,306.0,307.0,4.58,5.07,13.6,47.59359,-54.27349
2017-10-13 19:20:00+00:00,324.0,322.0,3.07,3.79,14.2,47.59359,-54.27349
2017-10-13 19:30:00+00:00,322.0,321.0,4.73,5.45,13.7,47.59359,-54.27349
2017-10-13 19:40:00+00:00,302.0,304.0,4.83,5.51,13.7,47.59359,-54.27349
2017-10-13 19:50:00+00:00,310.0,314.0,3.29,3.77,14.2,47.59359,-54.27349
2017-10-13 20:00:00+00:00,318.0,316.0,4.99,6.0,13.6,47.59359,-54.27349
2017-10-13 20:10:00+00:00,313.0,314.0,4.71,5.17,13.6,47.59359,-54.27349
2017-10-13 20:20:00+00:00,319.0,313.0,5.2,6.22,13.6,47.59359,-54.27349
2017-10-13 20:30:00+00:00,317.0,307.0,4.36,5.13,13.6,47.59359,-54.27349
2017-10-13 20:40:00+00:00,315.0,316.0,3.52,4.18,13.5,47.59359,-54.27349
2017-10-13 20:50:00+00:00,313.0,315.0,4.15,4.91,13.4,47.59359,-54.27349
2017-10-13 21:00:00+00:00,314.0,315.0,3.71,4.12,13.3,47.59359,-54.27349
2017-10-13 21:10:00+00:00,286.0,277.0,4.01,4.97,13.1,47.59359,-54.27349
2017-10-13 21:20:00+00:00,289.0,291.0,3.71,4.37,13.0,47.59359,-54.27349
2017-10-13 21:30:00+00:00,273.0,274.0,6.16,6.74,13.0,47.59359,-54.27349
2017-10-13 21:40:00+00:00,287.0,294.0,5.03,5.79,13.0,47.59359,-54.27349
2017-10-13 21:50:00+00:00,280.0,282.0,4.7,5.23,13.0,47.59359,-54.27349
2017-10-13 22:00:00+00:00,288.0,290.0,4.84,5.17,12.9,47.59359,-54.27349
2017-10-13 22:10:00+00:00,297.0,299.0,4.67,5.24,12.7,47.59359,-54.27349
2017-10-13 22:20:00+00:00,292.0,295.0,5.62,6.37,12.8,47.59359,-54.27349
2017-10-13 22:30:00+00:00,289.0,286.0,5.06,5.76,12.8,47.59359,-54.27349
2017-10-13 22:40:00+00:00,286.0,285.0,5.23,5.74,12.8,47.59359,-54.27349
2017-10-13 22:50:00+00:00,278.0,279.0,4.97,5.4,12.8,47.59359,-54.27349
2017-10-13 23:00:00+00:00,278.0,276.0,4.48,4.9,12.7,47.59359,-54.27349
2017-10-13 23:10:00+00:00,279.0,279.0,4.56,5.07,12.6,47.59359,-54.27349
2017-10-13 23:20:00+00:00,279.0,283.0,4.31,4.71,12.7,47.59359,-54.27349
2017-10-13 23:30:00+00:00,271.0,276.0,4.23,4.65,12.7,47.59359,-54.27349
2017-10-13 23:40:00+00:00,282.0,284.0,4.15,4.58,12.7,47.59359,-54.27349
2017-10-13 23:50:00+00:00,265.0,266.0,5.32,5.98,12.7,47.59359,-54.27349
